Home > Weather > Porto Novo > Past weeks

Flag for Benin Weather for the Past 2 Weeks in Porto Novo, Benin

Now
84 °F

Passing clouds.


Feels Like: 101 °F
Forecast: 79 / 90 °F
Wind: 10 mph from South

Location: Cotonou Airport

Current Time: Feb 14, 2016 at 8:15:39 PM

Latest Report: Feb 14, 2016 at 7:00 PM


Visibility: 5 mi

Pressure: 29.77 "Hg

Humidity: 94%

Dew point: 82 °F

Location of Porto NovoLocation

Historic Weather in Porto Novo — Graph

°F

Porto Novo Temperature Yesterday

Maximum temperature yesterday: 88 °F (at 12:00 PM)
Minimum temperature yesterday: 79 °F (at 5:00 AM)
Average temperature yesterday: 83 °F

High & Low Weather Summary for the Past Weeks

 TemperatureHumidityPressure
High95 °F (Feb 9, 2:00 PM)100% (Feb 1, 3:00 AM)29.98 "Hg (Feb 1, 3:00 AM)
Low72 °F (Jan 31, 6:00 AM)21% (Feb 10, 1:00 PM)29.71 "Hg (Feb 10, 5:00 PM)
Average82 °F88%29.84 "Hg
* Reported Jan 30 7:00 PM — Feb 14 7:00 PM, Porto Novo, Weather by CustomWeather, © 2016

Note: Actual official high and low records may vary slightly from our data, if they occured in-between our weather recording intervals... More about our weather records

Advertising

Porto Novo Weather History for the Previous 24 Hours

 ConditionsComfort  
Time TempWeatherWind HumidityBarometerVisibility
7:00 PM
Sun, Feb 14
84 °FPassing clouds.10 mph94%29.77 "Hg5 mi
6:00 PM84 °FPassing clouds.13 mph94%29.74 "Hg5 mi
5:00 PM86 °FPassing clouds.13 mph89%29.74 "Hg5 mi
4:00 PM88 °FPassing clouds.14 mph84%29.74 "Hg5 mi
3:00 PM88 °FPassing clouds.13 mph84%29.77 "Hg5 mi
2:00 PM90 °FPassing clouds.13 mph84%29.80 "Hg4 mi
1:00 PM88 °FPassing clouds.13 mph84%29.83 "Hg4 mi
12:00 PM88 °FPassing clouds.12 mph89%29.86 "Hg4 mi
11:00 AM88 °FPassing clouds.12 mph84%29.89 "Hg4 mi
10:00 AM86 °FPassing clouds.9 mph89%29.89 "Hg4 mi
9:00 AM82 °FPassing clouds.3 mph100%29.89 "Hg4 mi
8:00 AM81 °FScattered clouds.2 mph100%29.86 "Hg4 mi
7:00 AM81 °FPassing clouds.5 mph100%29.86 "Hg4 mi
6:00 AM81 °FPassing clouds.7 mph100%29.83 "Hg4 mi
5:00 AM81 °FPassing clouds.8 mph100%29.83 "Hg4 mi
4:00 AM81 °FPassing clouds.8 mph100%29.83 "Hg4 mi
3:00 AM81 °FPassing clouds.10 mph100%29.83 "Hg4 mi
2:00 AM81 °FPassing clouds.12 mph100%29.86 "Hg4 mi
1:00 AM82 °FPassing clouds.10 mph100%29.89 "Hg4 mi
12:00 AM82 °FPassing clouds.10 mph100%29.89 "Hg4 mi
11:00 PM
Sat, Feb 13
82 °FPassing clouds.10 mph100%29.89 "Hg4 mi
10:00 PM82 °FPassing clouds.10 mph100%29.86 "Hg4 mi
9:00 PM82 °FPassing clouds.12 mph100%29.86 "Hg4 mi
8:00 PM82 °FPassing clouds.12 mph100%29.83 "Hg4 mi
Weather by CustomWeather, © 2016

See weather overviewHow to use our weather pages